Weather History for K5H4 - November, 2012

Change the Weather History Date:

Thursday, November 1, 2012

  Actual Average (KRUG) Record (KRUG)
Temperature  
Mean Temperature 28 °F -  
Max Temperature 32 °F 46 °F 70 °F (1983)
Min Temperature 24 °F 27 °F -2 °F (1984)
Degree Days  
Heating Degree Days 37    
Moisture  
Dew Point 24 °F    
Average Humidity 88    
Maximum Humidity 100    
Minimum Humidity 75    
Precipitation  
Precipitation 0.00 in - - ()
Sea Level Pressure  
Sea Level Pressure 30.12 in    
Wind  
Wind Speed 10 mph (ENE)    
Max Wind Speed 15 mph    
Max Gust Speed 21 mph    
Visibility 10 miles    
Events      
Averages and records for this station are not official NWS values.
T = Trace of Precipitation, MM = Missing Value Source: NWS Daily Summary

Daily Weather History Graph

Daily Weather History Graph

Search for Another Location

Airport or City:

Trip Planner

Search our weather history database for the weather conditions in past years. The results will help you decide how hot, cold, wet, or windy it might be!

Date:

Astronomy

Nov. 01, 2012 Rise Set
Actual Time 8:24 AM CDT 6:20 PM CDT
Civil Twilight 7:52 AM CDT 6:53 PM CDT
Nautical Twilight 7:16 AM CDT 7:29 PM CDT
Astronomical Twilight 6:40 AM CDT 8:05 PM CDT
Moon 8:09 PM CDT (11/1) 11:08 AM CDT (11/1)
Length of Visible Light 11h 00m
Length of Day
9h 55m
Waning Gibbous, 93% of the Moon is Illuminated
Nov 1
Waning Gibbous
Nov 6
Last Quarter
Nov 13
New
Nov 20
First Quarter
Nov 28
Full

Hourly Weather History & Observations

Time (CDT) Temp. Windchill Dew Point Humidity Pressure Visibility Wind Dir Wind Speed Gust Speed Precip Events Conditions
12:15 AM 32.0 °F 24.2 °F 32.0 °F 100% 30.14 in 10.0 mi NNW 9.2 mph - N/A   Overcast
12:35 AM 32.0 °F 24.8 °F 32.0 °F 100% 30.14 in 10.0 mi NNW 8.1 mph - N/A   Overcast
12:55 AM 32.0 °F 24.8 °F 32.0 °F 100% 30.14 in 10.0 mi North 8.1 mph - N/A   Overcast
1:15 AM 32.0 °F 25.6 °F 32.0 °F 100% 30.14 in 10.0 mi North 6.9 mph - N/A   Overcast
1:35 AM 32.0 °F 25.6 °F 28.4 °F 87% 30.14 in 10.0 mi ENE 6.9 mph - N/A   Overcast
1:55 AM 32.0 °F 24.8 °F 28.4 °F 87% 30.14 in 10.0 mi ENE 8.1 mph - N/A   Overcast
2:15 AM 32.0 °F 24.8 °F 26.6 °F 80% 30.14 in 10.0 mi ENE 8.1 mph - N/A   Overcast
2:35 AM 30.2 °F 22.6 °F 26.6 °F 86% 30.14 in 10.0 mi ENE 8.1 mph - N/A   Overcast
2:55 AM 30.2 °F 22.6 °F 26.6 °F 86% 30.14 in 10.0 mi ENE 8.1 mph - N/A   Overcast
3:15 AM 30.2 °F 22.6 °F 26.6 °F 86% 30.14 in 10.0 mi ENE 8.1 mph - N/A   Overcast
3:35 AM 28.4 °F 18.0 °F 26.6 °F 93% 30.13 in 10.0 mi East 12.7 mph - N/A   Overcast
3:55 AM 28.4 °F 18.0 °F 26.6 °F 93% 30.14 in 10.0 mi ENE 12.7 mph - N/A   Overcast
4:15 AM 28.4 °F 19.1 °F 26.6 °F 93% 30.14 in 10.0 mi ENE 10.4 mph - N/A   Overcast
4:35 AM 28.4 °F 18.5 °F 26.6 °F 93% 30.15 in 10.0 mi ENE 11.5 mph - N/A   Overcast
4:55 AM 28.4 °F 17.0 °F 24.8 °F 86% 30.13 in 10.0 mi ENE 15.0 mph - N/A   Overcast
5:15 AM 28.4 °F 19.1 °F 24.8 °F 86% 30.15 in 10.0 mi ENE 10.4 mph - N/A   Overcast
5:35 AM 28.4 °F 18.5 °F 24.8 °F 86% 30.15 in 10.0 mi ENE 11.5 mph - N/A   Overcast
6:15 AM 26.6 °F 17.5 °F 24.8 °F 93% 30.14 in 10.0 mi ENE 9.2 mph - N/A   Unknown
6:35 AM 26.6 °F 16.8 °F 24.8 °F 93% 30.15 in 10.0 mi NE 10.4 mph - N/A   Overcast
6:55 AM 26.6 °F 16.8 °F 24.8 °F 93% 30.15 in 10.0 mi ENE 10.4 mph - N/A   Overcast
7:15 AM 26.6 °F 17.5 °F 24.8 °F 93% 30.16 in 10.0 mi NE 9.2 mph - N/A   Overcast
7:35 AM 26.6 °F 17.5 °F 24.8 °F 93% 30.16 in 10.0 mi ENE 9.2 mph - N/A   Unknown
7:55 AM 24.8 °F 13.4 °F 23.0 °F 93% 30.15 in 10.0 mi ENE 12.7 mph - N/A   Overcast
8:15 AM 24.8 °F 14.6 °F 23.0 °F 93% 30.16 in 10.0 mi ENE 10.4 mph - N/A   Overcast
8:35 AM 24.8 °F 14.0 °F 23.0 °F 93% 30.17 in 10.0 mi ENE 11.5 mph - N/A   Overcast
8:55 AM 24.8 °F 14.0 °F 23.0 °F 93% 30.16 in 10.0 mi East 11.5 mph - N/A   Overcast
9:15 AM 24.8 °F 13.4 °F 23.0 °F 93% 30.16 in 10.0 mi East 12.7 mph - N/A   Overcast
10:35 AM 24.8 °F 13.4 °F 23.0 °F 93% 30.16 in 10.0 mi East 12.7 mph - N/A   Overcast
10:55 AM 26.6 °F 16.2 °F 23.0 °F 86% 30.16 in 10.0 mi ENE 11.5 mph - N/A   Overcast
11:15 AM 26.6 °F 17.5 °F 23.0 °F 86% 30.15 in 10.0 mi East 9.2 mph - N/A   Overcast
11:35 AM 26.6 °F 16.8 °F 23.0 °F 86% 30.14 in 10.0 mi East 10.4 mph - N/A   Overcast
11:55 AM 26.6 °F 16.8 °F 23.0 °F 86% 30.15 in 10.0 mi ENE 10.4 mph - N/A   Overcast
12:15 PM 26.6 °F 16.8 °F 23.0 °F 86% 30.15 in 10.0 mi ENE 10.4 mph - N/A   Overcast
12:35 PM 26.6 °F 16.8 °F 23.0 °F 86% 30.14 in 10.0 mi NE 10.4 mph - N/A   Overcast
1:15 PM 28.4 °F 19.7 °F 23.0 °F 80% 30.13 in 10.0 mi ENE 9.2 mph - N/A   Overcast
1:35 PM 28.4 °F 21.2 °F 23.0 °F 80% 30.13 in 10.0 mi ESE 6.9 mph - N/A   Overcast
1:55 PM 28.4 °F 19.1 °F 23.0 °F 80% 30.11 in 10.0 mi ENE 10.4 mph - N/A   Overcast
2:15 PM 28.4 °F 17.5 °F 23.0 °F 80% 30.10 in 10.0 mi East 13.8 mph - N/A   Overcast
2:35 PM 28.4 °F 18.5 °F 23.0 °F 80% 30.10 in 10.0 mi East 11.5 mph - N/A   Overcast
2:55 PM 30.2 °F 21.3 °F 23.0 °F 75% 30.10 in 10.0 mi ESE 10.4 mph - N/A   Overcast
3:15 PM 30.2 °F 21.3 °F 23.0 °F 75% 30.09 in 10.0 mi East 10.4 mph - N/A   Mostly Cloudy
3:35 PM 28.4 °F 18.0 °F 23.0 °F 80% 30.08 in 10.0 mi East 12.7 mph - N/A   Mostly Cloudy
4:15 PM 30.2 °F 20.8 °F 23.0 °F 75% 30.08 in 10.0 mi ENE 11.5 mph - N/A   Overcast
4:35 PM 28.4 °F 18.0 °F 23.0 °F 80% 30.08 in 10.0 mi East 12.7 mph - N/A   Mostly Cloudy
4:55 PM 28.4 °F 19.1 °F 23.0 °F 80% 30.09 in 10.0 mi ENE 10.4 mph - N/A   Scattered Clouds
5:15 PM 26.6 °F 15.7 °F 23.0 °F 86% 30.07 in 10.0 mi East 12.7 mph - N/A   Mostly Cloudy
5:35 PM 26.6 °F 15.7 °F 23.0 °F 86% 30.07 in 10.0 mi East 12.7 mph - N/A   Scattered Clouds
5:55 PM 26.6 °F 16.2 °F 23.0 °F 86% 30.07 in 10.0 mi East 11.5 mph - N/A   Scattered Clouds
6:15 PM 26.6 °F 15.7 °F 23.0 °F 86% 30.06 in 10.0 mi East 12.7 mph - N/A   Partly Cloudy
6:35 PM 26.6 °F 15.7 °F 23.0 °F 86% 30.07 in 10.0 mi East 12.7 mph - N/A   Partly Cloudy
6:55 PM 26.6 °F 16.2 °F 23.0 °F 86% 30.07 in 10.0 mi East 11.5 mph - N/A   Partly Cloudy
7:15 PM 26.6 °F 15.7 °F 23.0 °F 86% 30.09 in 10.0 mi East 12.7 mph - N/A   Clear
7:35 PM 26.6 °F 15.7 °F 23.0 °F 86% 30.09 in 10.0 mi East 12.7 mph - N/A   Clear
7:55 PM 26.6 °F 16.2 °F 23.0 °F 86% 30.09 in 10.0 mi East 11.5 mph - N/A   Clear
8:15 PM 26.6 °F 14.7 °F 23.0 °F 86% 30.08 in 10.0 mi East 15.0 mph 19.6 mph N/A   Scattered Clouds
8:35 PM 26.6 °F 14.7 °F 23.0 °F 86% 30.08 in 10.0 mi East 15.0 mph - N/A   Partly Cloudy
8:55 PM 24.8 °F 12.4 °F 23.0 °F 93% 30.08 in 10.0 mi East 15.0 mph 18.4 mph N/A   Partly Cloudy
9:15 PM 24.8 °F 12.9 °F 23.0 °F 93% 30.07 in 10.0 mi East 13.8 mph 19.6 mph N/A   Scattered Clouds
9:35 PM 24.8 °F 13.4 °F 23.0 °F 93% 30.08 in 10.0 mi East 12.7 mph - N/A   Mostly Cloudy
9:55 PM 24.8 °F 12.9 °F 23.0 °F 93% 30.09 in 10.0 mi East 13.8 mph 18.4 mph N/A   Overcast
10:15 PM 24.8 °F 12.4 °F 23.0 °F 93% 30.09 in 10.0 mi ESE 15.0 mph - N/A   Overcast
10:35 PM 24.8 °F 12.9 °F 23.0 °F 93% 30.09 in 7.0 mi ESE 13.8 mph 18.4 mph N/A   Overcast
10:55 PM 24.8 °F 12.4 °F 23.0 °F 93% 30.07 in 8.0 mi East 15.0 mph 20.7 mph N/A   Overcast
11:15 PM 26.6 °F 15.7 °F 23.0 °F 86% 30.08 in 10.0 mi East 12.7 mph - N/A   Overcast
11:35 PM 26.6 °F 15.2 °F 23.0 °F 86% 30.07 in 10.0 mi ESE 13.8 mph - N/A   Overcast
11:55 PM 26.6 °F 14.7 °F 23.0 °F 86% 30.06 in 10.0 mi ESE 15.0 mph - N/A   Overcast